[[{"header":{"parameterUnit":"m.s-1","parameterCategory":1,"la1":30.2991,"la2":30.254,"lo1":-89.0895,"lo2":-89.0444,"dy":0.0017,"dx":0.0017,"nx":28,"ny":28,"refTime":"2023-10-15T21:00:00:Z","depth":0,"parameterNumber":2,"parameterNumberName":"U-component_of_WINDS"},"data":[0,0,0,0,0,0,0,0,0,0,0,0,0,0,0,0,0,0,0,0,0,0,0,0,0,0,0,0,0,0,0,0,0,0,0,0,0,0,0,0,0,0,0,0,0,0,0,0,0,0,0,0,0,0,0,0,0,0,1.2547,1.2548,0,1.2607,1.2608,1.2608,1.263,1.263,1.263,1.263,1.2694,1.2696,1.2698,0,0,0,0,0,0,0,0,0,0,0,0,0,1.2454,1.2456,1.2547,1.2548,1.2549,1.2607,1.2608,1.2609,1.263,1.263,1.263,1.263,1.2693,1.2696,1.2698,0,0,0,0,0,0,0,0,0,0,0,0,0,1.2502,1.2456,1.2547,1.2566,1.2569,1.2607,1.2608,1.2609,1.263,1.263,1.263,1.263,1.2693,1.2695,1.2698,1.2722,0,0,1.2707,1.2708,0,0,0,0,0,0,0,0,1.25,1.2506,1.2563,1.2565,1.2568,1.2611,1.2599,1.2647,1.2631,1.2607,1.263,1.2629,1.2667,1.2672,1.2684,1.2725,1.2728,1.2707,1.2709,1.271,1.2711,0,0,0,0,0,0,0,1.2496,1.2503,1.2571,1.2564,1.2567,1.2573,1.258,1.2608,1.2638,1.2609,1.2611,1.2617,1.2668,1.2681,1.2685,1.2729,1.2707,1.271,1.2711,1.2713,1.2794,1.2794,0,0,0,0,0,0,1.2489,1.25,1.2569,1.2573,1.2532,1.2575,1.2582,1.2597,1.2638,1.2644,1.2618,1.2618,1.2676,1.2682,1.2688,1.2719,1.271,1.2713,1.2714,1.2793,1.2794,1.2794,0,0,0,0,0,0,1.2487,1.2495,1.2567,1.2537,1.2547,1.2577,1.2594,1.2599,1.2612,1.2644,1.265,1.2625,1.2676,1.2684,1.2713,1.2721,1.2714,1.2717,1.2793,1.2793,1.2794,1.278,0,0,0,0,0,0,1.2484,1.2494,1.2503,1.2537,1.2548,1.259,1.2594,1.26,1.2616,1.2617,1.2653,1.2658,1.2677,1.2709,1.2716,1.2725,1.2719,1.2792,1.2793,1.2794,1.278,1.278,1.2781,0,0,0,0,0,1.2481,1.2497,1.2503,1.2511,1.2559,1.2591,1.2597,1.2617,1.2617,1.2626,1.2647,1.2657,1.2719,1.2712,1.272,1.273,1.2792,1.2793,1.2794,1.278,1.278,1.2781,0,0,0,0,0,0,1.2464,1.2502,1.2509,1.2537,1.256,1.2594,1.2607,1.2617,1.2641,1.2642,1.2666,1.2674,1.2702,1.2719,1.271,1.2755,1.2756,1.2759,1.2743,1.2744,1.2744,1.2739,1.2721,0,0,0,0,0,1.2464,1.2485,1.2517,1.2539,1.255,1.2576,1.2591,1.2604,1.2629,1.264,1.2663,1.2688,1.2713,1.2729,1.2755,1.2783,1.2791,1.2794,1.2794,1.2794,1.2796,1.2813,1.2814,1.2797,1.2797,1.2797,0,0,1.2463,1.2486,1.2498,1.2536,1.2555,1.2578,1.2584,1.2608,1.2625,1.2644,1.2673,1.2691,1.2721,1.2749,1.2764,1.2765,1.2803,1.2795,1.2795,1.2797,1.2814,1.2815,1.2817,1.2798,1.2798,1.2798,0,0,1.2473,1.2492,1.2512,1.2532,1.2561,1.2579,1.2583,1.2616,1.2628,1.2658,1.2672,1.2694,1.2736,1.2757,1.2773,1.2791,1.2801,1.2799,1.28,1.2816,1.2817,1.2818,1.2825,1.2827,1.2801,1.2801,1.2801,0,1.2468,1.2501,1.2522,1.2544,1.256,1.2578,1.2598,1.2617,1.2653,1.2664,1.2665,1.2719,1.2741,1.2775,1.2779,1.2791,1.2798,1.2795,1.2815,1.2816,1.2818,1.2824,1.2827,1.28,1.28,1.28,1.28,0,1.2495,1.2518,1.253,1.2564,1.2582,1.2604,1.2628,1.2644,1.2655,1.2673,1.2703,1.2729,1.276,1.2769,1.2781,1.2805,1.2805,1.281,1.2811,1.2819,1.2825,1.2828,1.2799,1.28,1.28,1.28,0,0,1.2495,1.254,1.2544,1.256,1.2594,1.2612,1.2635,1.2664,1.2677,1.2702,1.2722,1.2758,1.2763,1.2781,1.2796,1.281,1.2822,1.2813,1.2814,1.2814,1.2851,1.2846,1.2849,1.2829,1.283,1.283,1.2848,0,1.251,1.255,1.2569,1.2601,1.2623,1.264,1.266,1.2683,1.27,1.2722,1.2741,1.2766,1.2771,1.2782,1.2796,1.2818,1.283,1.2817,1.2849,1.285,1.284,1.2852,1.2848,1.2864,1.2851,1.2851,1.2852,0,1.2532,1.2556,1.259,1.2621,1.2631,1.2648,1.2677,1.2697,1.2724,1.2736,1.2756,1.277,1.2795,1.2795,1.283,1.2821,1.2835,1.2848,1.2849,1.2852,1.2851,1.2856,1.2869,1.2871,1.2856,1.2855,1.2855,0,1.2529,1.257,1.2595,1.2608,1.2646,1.2657,1.2674,1.27,1.2717,1.2742,1.2753,1.2781,1.2796,1.2818,1.284,1.2837,1.2873,1.2874,1.2884,1.2883,1.2891,1.289,1.2906,1.29,1.29,1.29,1.29,0,1.2543,1.2563,1.2595,1.261,1.2634,1.2656,1.2679,1.2696,1.272,1.274,1.2757,1.2776,1.2803,1.2825,1.2843,1.2869,1.2876,1.2887,1.2891,1.2885,1.2884,1.2895,1.2895,1.2901,1.29,1.29,1.29,0,1.2544,1.2565,1.2595,1.2627,1.2636,1.2652,1.268,1.2697,1.2715,1.274,1.2747,1.2776,1.2803,1.2827,1.2863,1.2875,1.2902,1.2908,1.2893,1.2895,1.2903,1.2902,1.2927,1.2931,1.2922,1.2922,1.2922,0,1.2551,1.2567,1.2601,1.2615,1.2631,1.2654,1.2671,1.2693,1.271,1.2742,1.2755,1.2783,1.2807,1.285,1.2874,1.2902,1.2908,1.2915,1.2912,1.2906,1.2908,1.2907,1.2909,1.2915,1.2915,1.2915,1.2915,0,1.2562,1.2572,1.2595,1.2621,1.264,1.2663,1.2686,1.2697,1.2723,1.2742,1.2769,1.2787,1.2824,1.2852,1.2883,1.29,1.2912,1.2915,1.2919,1.2913,1.2904,1.2909,1.2893,1.2915,1.2915,1.2915,1.2915,1.2915,1.2566,1.2581,1.2608,1.2633,1.2652,1.2673,1.269,1.271,1.2733,1.2764,1.2776,1.2804,1.2831,1.2873,1.2891,1.2914,1.2916,1.2921,1.2923,1.2924,1.2923,1.29,1.292,1.292,1.292,1.292,1.292,0,1.2578,1.2596,1.2619,1.265,1.2669,1.2678,1.2704,1.272,1.2744,1.2768,1.2791,1.2823,1.285,1.2877,1.2906,1.2919,1.2925,1.2926,1.2925,1.2929,1.2919,1.2913,1.292,1.292,1.292,1.292,1.292,1.292,1.2586,1.2612,1.2625,1.2661,1.2679,1.2706,1.272,1.274,1.2759,1.2793,1.2816,1.2833,1.2858,1.2889,1.2914,1.2921,1.2931,1.293,1.2939,1.293,1.2929,1.2929,1.2923,1.2932,1.2932,1.2947,1.2947,1.2947]},{"header":{"parameterUnit":"m.s-1","parameterCategory":1,"la1":30.2991,"la2":30.254,"lo1":-89.0895,"lo2":-89.0444,"dy":0.0017,"dx":0.0017,"nx":28,"ny":28,"refTime":"2023-10-15T21:00:00:Z","depth":0,"parameterNumber":3,"parameterNumberName":"V-component_of_WINDS"},"data":[0,0,0,0,0,0,0,0,0,0,0,0,0,0,0,0,0,0,0,0,0,0,0,0,0,0,0,0,0,0,0,0,0,0,0,0,0,0,0,0,0,0,0,0,0,0,0,0,0,0,0,0,0,0,0,0,0,0,1.1442,1.1441,0,1.1405,1.1405,1.1404,1.1359,1.1358,1.1358,1.1357,1.1317,1.1317,1.1317,0,0,0,0,0,0,0,0,0,0,0,0,0,1.1468,1.1468,1.1442,1.1441,1.1441,1.1405,1.1405,1.1404,1.1359,1.1358,1.1357,1.1357,1.1317,1.1317,1.1317,0,0,0,0,0,0,0,0,0,0,0,0,0,1.1447,1.1468,1.1442,1.1414,1.1411,1.1405,1.1405,1.1404,1.1359,1.1358,1.1357,1.1356,1.1318,1.1317,1.1317,1.1334,0,0,1.1315,1.1314,0,0,0,0,0,0,0,0,1.1448,1.1446,1.1419,1.1416,1.1413,1.1386,1.1399,1.1381,1.136,1.1379,1.1357,1.1356,1.1341,1.1338,1.1334,1.1332,1.1331,1.1315,1.1314,1.1314,1.1314,0,0,0,0,0,0,0,1.1449,1.1447,1.1427,1.1418,1.1415,1.1402,1.1398,1.1396,1.1366,1.1377,1.1374,1.137,1.1339,1.1334,1.1332,1.133,1.1315,1.1314,1.1314,1.1314,1.1336,1.1337,0,0,0,0,0,0,1.1455,1.1448,1.1428,1.1426,1.1428,1.1402,1.1398,1.1395,1.1366,1.1361,1.1371,1.1368,1.1336,1.1333,1.1331,1.1346,1.1314,1.1314,1.1313,1.1335,1.1336,1.1337,0,0,0,0,0,0,1.1456,1.1454,1.143,1.1436,1.1432,1.1403,1.1401,1.1395,1.139,1.1362,1.1356,1.1372,1.1335,1.1332,1.1333,1.1344,1.1313,1.1313,1.1334,1.1336,1.1337,1.1379,0,0,0,0,0,0,1.1457,1.1455,1.1462,1.1437,1.1432,1.1434,1.1402,1.1395,1.139,1.1386,1.1361,1.1356,1.1334,1.1334,1.1332,1.1343,1.1312,1.1333,1.1335,1.1337,1.1377,1.1382,1.1387,0,0,0,0,0,1.1458,1.1476,1.1463,1.1461,1.1441,1.1435,1.1432,1.1407,1.1391,1.1397,1.1378,1.1357,1.1344,1.1334,1.1332,1.1343,1.1332,1.1334,1.1336,1.1374,1.1381,1.1386,0,0,0,0,0,0,1.1504,1.1473,1.1458,1.1468,1.1454,1.1427,1.1435,1.1415,1.1405,1.1402,1.137,1.1365,1.1369,1.1356,1.1346,1.1356,1.1334,1.1336,1.1364,1.137,1.1375,1.1377,1.1312,0,0,0,0,0,1.1516,1.1514,1.1486,1.1498,1.1492,1.1465,1.1461,1.1442,1.1427,1.142,1.1402,1.1386,1.1378,1.1374,1.1365,1.1375,1.1367,1.1381,1.1386,1.139,1.1391,1.1391,1.1396,1.1345,1.1344,1.1344,0,0,1.1539,1.1522,1.1523,1.1507,1.1494,1.1491,1.146,1.1459,1.1456,1.142,1.1419,1.1405,1.1385,1.139,1.1391,1.1379,1.1404,1.1393,1.1396,1.1395,1.1394,1.1399,1.1403,1.1346,1.1346,1.1345,0,0,1.158,1.1568,1.1575,1.1562,1.1543,1.1524,1.1525,1.15,1.1489,1.1488,1.1459,1.1455,1.1443,1.1429,1.142,1.1452,1.143,1.145,1.1475,1.1475,1.1479,1.1483,1.1491,1.1495,1.1451,1.1452,1.1452,0,1.1611,1.1607,1.1581,1.158,1.1572,1.154,1.1544,1.1533,1.1512,1.1507,1.1494,1.1476,1.1461,1.1459,1.1466,1.1462,1.146,1.1452,1.1481,1.1484,1.1487,1.1494,1.1498,1.1454,1.1454,1.1453,1.1453,0,1.1644,1.1642,1.1649,1.1629,1.1622,1.1625,1.1596,1.1592,1.1574,1.1556,1.1552,1.1533,1.1518,1.1516,1.1499,1.1511,1.1504,1.1487,1.1464,1.1495,1.1501,1.1504,1.1457,1.1456,1.1456,1.1455,0,0,1.1714,1.1677,1.168,1.1668,1.1643,1.164,1.1639,1.1625,1.162,1.1606,1.1603,1.1592,1.1574,1.1564,1.1545,1.1546,1.1567,1.1527,1.1526,1.1533,1.1576,1.1588,1.1592,1.1553,1.1554,1.1554,1.1576,0,1.1748,1.1746,1.172,1.1725,1.1719,1.1687,1.1686,1.1669,1.1651,1.1643,1.1623,1.1614,1.1594,1.1587,1.1587,1.1565,1.1575,1.1563,1.1548,1.1547,1.1552,1.1595,1.1609,1.1631,1.1579,1.158,1.158,0,1.1787,1.1774,1.1778,1.1749,1.1746,1.1746,1.1728,1.1722,1.1701,1.1688,1.1675,1.1653,1.1647,1.1627,1.1618,1.161,1.1602,1.159,1.159,1.1586,1.1564,1.159,1.1637,1.164,1.1584,1.1584,1.1583,0,1.1833,1.1817,1.1816,1.1808,1.1776,1.1775,1.1762,1.174,1.1732,1.1716,1.1709,1.1694,1.1684,1.1672,1.1644,1.1632,1.1636,1.1615,1.1623,1.1623,1.1624,1.1624,1.1669,1.1623,1.1623,1.1623,1.1623,0,1.1872,1.1875,1.1836,1.1835,1.1836,1.1806,1.1807,1.179,1.1771,1.1764,1.1735,1.173,1.1695,1.1684,1.1663,1.1656,1.1653,1.164,1.1634,1.1641,1.1643,1.1635,1.1631,1.1624,1.1623,1.1623,1.1623,0,1.1923,1.1898,1.1894,1.1863,1.1855,1.1857,1.183,1.1826,1.1806,1.1798,1.1795,1.1763,1.1748,1.172,1.1698,1.1683,1.1681,1.1672,1.1688,1.1684,1.1693,1.1691,1.1732,1.1734,1.1689,1.169,1.169,0,1.1949,1.195,1.1919,1.1913,1.19,1.1891,1.1881,1.1851,1.1842,1.1817,1.1816,1.18,1.1785,1.1763,1.1737,1.1719,1.1708,1.1723,1.1705,1.1711,1.1704,1.1704,1.1702,1.1726,1.1727,1.1728,1.1728,0,1.1996,1.1982,1.1971,1.1954,1.1943,1.1929,1.1912,1.1908,1.1874,1.1865,1.185,1.1839,1.1815,1.1798,1.1776,1.176,1.1737,1.1734,1.1734,1.1741,1.175,1.1742,1.1697,1.1733,1.1733,1.1732,1.1732,1.1732,1.2033,1.2031,1.2008,1.1995,1.1979,1.1964,1.1958,1.1937,1.1924,1.1903,1.1886,1.1872,1.1847,1.1815,1.18,1.1787,1.1776,1.1778,1.1778,1.1778,1.178,1.1753,1.1783,1.1783,1.1783,1.1783,1.1783,0,1.2075,1.2059,1.2047,1.2024,1.2013,1.1994,1.1974,1.1965,1.1953,1.1933,1.1919,1.19,1.1883,1.1854,1.1834,1.1829,1.1818,1.1824,1.1823,1.1819,1.1792,1.1793,1.1833,1.1833,1.1833,1.1833,1.1833,1.1833,1.2096,1.2091,1.2074,1.206,1.2042,1.2029,1.2019,1.2003,1.1986,1.1967,1.1952,1.1934,1.191,1.1887,1.1869,1.1861,1.1854,1.1863,1.1852,1.1827,1.1822,1.1817,1.1817,1.1863,1.1863,1.188,1.188,1.188]}]]